CES9968 ZGHA-ZBAD

Flight info

Callsign CES9968
Flight time N/A
Altitude 31100
Route GUDRO W56 ORODO W62 TEKIL G212 BELAX
Aircraft MD82/M-SDFGIRWY/C

Departure

Time 2026-04-18 11:42
Airport Changsha Huanghua International Airport (ZGHA)

Arrival

Time N/A
Airport Beijing Daxing International Airport (ZBAD)
Time Latitude Longitude Altitude Speed Heading
2026-04-18 11:14 28.18651 113.21549 214 ft 0 kts 358°
2026-04-18 11:29 28.18643 113.21550 219 ft 2 kts 358°
2026-04-18 11:29 28.18626 113.21550 214 ft 2 kts 358°
2026-04-18 11:29 28.18610 113.21551 214 ft 2 kts 358°
2026-04-18 11:30 28.18593 113.21550 214 ft 2 kts 23°
2026-04-18 11:30 28.18582 113.21537 216 ft 2 kts 65°
2026-04-18 11:30 28.18577 113.21519 214 ft 2 kts 78°
2026-04-18 11:30 28.18575 113.21501 214 ft 2 kts 85°
2026-04-18 11:31 28.18574 113.21493 214 ft 0 kts 86°
2026-04-18 11:34 28.18574 113.21494 214 ft 0 kts 86°
2026-04-18 11:34 28.18574 113.21498 214 ft 1 kts 86°
2026-04-18 11:34 28.18575 113.21506 214 ft 1 kts 86°
2026-04-18 11:34 28.18576 113.21519 214 ft 2 kts 87°
2026-04-18 11:35 28.18576 113.21537 216 ft 3 kts 87°
2026-04-18 11:35 28.18577 113.21560 214 ft 3 kts 87°
2026-04-18 11:35 28.18579 113.21587 214 ft 4 kts 87°
2026-04-18 11:35 28.18580 113.21620 214 ft 4 kts 88°
2026-04-18 11:36 28.18581 113.21656 214 ft 5 kts 88°
2026-04-18 11:36 28.18582 113.21696 214 ft 5 kts 88°
2026-04-18 11:36 28.18584 113.21740 214 ft 6 kts 87°
2026-04-18 11:36 28.18579 113.21783 214 ft 5 kts 118°
2026-04-18 11:37 28.18549 113.21807 220 ft 5 kts 158°
2026-04-18 11:37 28.18511 113.21814 215 ft 6 kts 176°
2026-04-18 11:37 28.18470 113.21817 214 ft 6 kts 176°
2026-04-18 11:37 28.18424 113.21820 216 ft 7 kts 177°
2026-04-18 11:38 28.18352 113.21824 214 ft 13 kts 176°
2026-04-18 11:38 28.18243 113.21831 219 ft 18 kts 176°
2026-04-18 11:38 28.18105 113.21839 216 ft 22 kts 177°
2026-04-18 11:38 28.17943 113.21849 216 ft 25 kts 176°
2026-04-18 11:39 28.17794 113.21860 217 ft 15 kts 171°
2026-04-18 11:39 28.17742 113.21921 222 ft 0 kts 91°
2026-04-18 11:40 28.17742 113.21948 222 ft 7 kts 91°
2026-04-18 11:40 28.17756 113.22018 222 ft 11 kts 56°
2026-04-18 11:40 28.17821 113.22043 220 ft 2 kts 357°
2026-04-18 11:41 28.17823 113.22043 220 ft 2 kts 357°
2026-04-18 11:41 28.17904 113.22038 217 ft 31 kts 357°
2026-04-18 11:41 28.18316 113.22012 218 ft 89 kts 357°
2026-04-18 11:41 28.19138 113.21962 218 ft 145 kts 356°
2026-04-18 11:42 28.20294 113.21877 330 ft 181 kts 355°
2026-04-18 11:42 28.21552 113.21776 961 ft 181 kts 355°
2026-04-18 11:42 28.22804 113.21663 1680 ft 180 kts 355°
2026-04-18 11:42 28.24061 113.21560 2250 ft 185 kts 356°
2026-04-18 11:43 28.25444 113.21480 2242 ft 214 kts 357°
2026-04-18 11:43 28.27023 113.21513 2319 ft 238 kts 10°
2026-04-18 11:43 28.28638 113.22135 2600 ft 253 kts 30°
2026-04-18 11:43 28.30058 113.23374 2983 ft 262 kts 49°
2026-04-18 11:44 28.31101 113.25061 3573 ft 262 kts 61°
2026-04-18 11:44 28.32011 113.26868 4148 ft 264 kts 62°
2026-04-18 11:44 28.32929 113.28675 4768 ft 266 kts 61°
2026-04-18 11:44 28.33873 113.30497 5291 ft 271 kts 60°
2026-04-18 11:45 28.34522 113.31725 5573 ft 276 kts 59°
2026-04-18 11:45 28.35864 113.34227 6367 ft 279 kts 58°
2026-04-18 11:45 28.36902 113.36101 6904 ft 282 kts 57°
2026-04-18 11:45 28.37608 113.37344 7288 ft 283 kts 56°
2026-04-18 11:46 28.38689 113.39217 7856 ft 285 kts 55°
2026-04-18 11:46 28.39794 113.41103 8411 ft 287 kts 54°
2026-04-18 11:46 28.40914 113.42995 8967 ft 290 kts 54°
2026-04-18 11:46 28.42051 113.44905 9512 ft 293 kts 53°
2026-04-18 11:47 28.43282 113.46747 10038 ft 293 kts 39°
2026-04-18 11:47 28.45038 113.47939 10214 ft 301 kts 13°
2026-04-18 11:47 28.47145 113.48271 10394 ft 313 kts
2026-04-18 11:47 28.50110 113.48425 10650 ft 331 kts
2026-04-18 11:48 28.51689 113.48494 10775 ft 340 kts
2026-04-18 11:48 28.54083 113.48585 11149 ft 347 kts 359°
2026-04-18 11:48 28.56500 113.48681 11695 ft 348 kts 359°
2026-04-18 11:48 28.58924 113.48799 12267 ft 349 kts 360°
2026-04-18 11:49 28.61361 113.48943 12806 ft 351 kts 360°
2026-04-18 11:49 28.63776 113.49103 13293 ft 354 kts 360°
2026-04-18 11:49 28.66236 113.49280 13833 ft 355 kts 360°
2026-04-18 11:49 28.68715 113.49462 14281 ft 358 kts 360°
2026-04-18 11:50 28.71130 113.49638 14681 ft 361 kts 360°
2026-04-18 11:50 28.73649 113.49822 15091 ft 365 kts 360°
2026-04-18 11:50 28.76142 113.50005 15535 ft 367 kts 360°
2026-04-18 11:50 28.78667 113.50188 16030 ft 368 kts 360°
2026-04-18 11:51 28.81233 113.50375 16494 ft 371 kts 360°
2026-04-18 11:51 28.83818 113.50565 16894 ft 374 kts 360°
2026-04-18 11:51 28.86385 113.50754 17337 ft 376 kts 360°
2026-04-18 11:51 28.89008 113.50946 17763 ft 380 kts 360°
2026-04-18 11:52 28.91653 113.51139 18200 ft 382 kts 360°
2026-04-18 11:52 28.94314 113.51331 18603 ft 384 kts 360°
2026-04-18 11:52 28.96982 113.51525 18973 ft 386 kts 360°
2026-04-18 11:52 28.99672 113.51721 19353 ft 388 kts 360°
2026-04-18 11:53 29.02367 113.51917 19767 ft 390 kts 360°
2026-04-18 11:53 29.05084 113.52113 20151 ft 391 kts 360°
2026-04-18 11:53 29.07806 113.52309 20545 ft 393 kts 360°
2026-04-18 11:53 29.10547 113.52508 20923 ft 396 kts 360°
2026-04-18 11:54 29.13296 113.52707 21301 ft 398 kts
2026-04-18 11:54 29.16071 113.52908 21692 ft 400 kts 360°
2026-04-18 11:54 29.18818 113.53107 22099 ft 401 kts 360°
2026-04-18 11:54 29.21612 113.53309 22462 ft 403 kts 360°
2026-04-18 11:55 29.24421 113.53512 22799 ft 406 kts
2026-04-18 11:55 29.27284 113.53720 23173 ft 408 kts
2026-04-18 11:55 29.30085 113.53929 23523 ft 410 kts
2026-04-18 11:55 29.32935 113.54169 23860 ft 411 kts
2026-04-18 11:56 29.35793 113.54426 24195 ft 413 kts
2026-04-18 11:56 29.38670 113.54688 24503 ft 415 kts
2026-04-18 11:56 29.41555 113.54949 24804 ft 417 kts
2026-04-18 11:56 29.44448 113.55206 25130 ft 418 kts
2026-04-18 11:57 29.47350 113.55460 25434 ft 420 kts 360°
2026-04-18 11:57 29.50279 113.55714 25772 ft 421 kts 360°
2026-04-18 11:57 29.53211 113.55968 26069 ft 424 kts 360°
2026-04-18 11:57 29.56156 113.56220 26359 ft 425 kts 360°
2026-04-18 11:58 29.59111 113.56475 26668 ft 427 kts 360°
2026-04-18 11:58 29.62077 113.56731 26948 ft 429 kts 359°
2026-04-18 11:58 29.65062 113.56990 27231 ft 431 kts 359°
2026-04-18 11:58 29.68063 113.57251 27548 ft 432 kts 359°
2026-04-18 11:59 29.71063 113.57513 27839 ft 433 kts 359°
2026-04-18 11:59 29.74077 113.57775 28118 ft 435 kts 359°
2026-04-18 11:59 29.77091 113.58039 28513 ft 433 kts 359°
2026-04-18 11:59 29.80050 113.58300 28947 ft 431 kts 359°
2026-04-18 12:00 29.83070 113.58566 29390 ft 429 kts 359°
2026-04-18 12:00 29.86004 113.58823 29761 ft 428 kts 359°
2026-04-18 12:00 29.89008 113.59084 30097 ft 427 kts 358°
2026-04-18 12:00 29.91966 113.59341 30424 ft 425 kts 358°
2026-04-18 12:01 29.97739 113.60938 30886 ft 441 kts 17°
2026-04-18 12:01 30.00563 113.62376 30956 ft 446 kts 18°
2026-04-18 12:02 30.06203 113.65359 31011 ft 444 kts 18°
2026-04-18 12:02 30.11823 113.68265 31020 ft 441 kts 17°
2026-04-18 12:03 30.17438 113.71070 31025 ft 439 kts 17°
2026-04-18 12:03 30.23066 113.73853 31030 ft 440 kts 17°
2026-04-18 12:04 30.28695 113.76652 31028 ft 441 kts 17°
2026-04-18 12:04 30.34332 113.79469 31026 ft 441 kts 17°
2026-04-18 12:05 30.39954 113.82293 31026 ft 440 kts 17°
2026-04-18 12:05 30.45556 113.85110 31029 ft 438 kts 17°
2026-04-18 12:06 30.51107 113.87898 31022 ft 437 kts 17°
2026-04-18 12:06 30.56690 113.90704 31022 ft 438 kts 17°
2026-04-18 12:07 30.62279 113.93518 31021 ft 438 kts 17°
2026-04-18 12:07 30.67882 113.96283 31016 ft 437 kts 16°
2026-04-18 12:08 30.73466 113.99120 31016 ft 439 kts 19°
2026-04-18 12:08 30.78959 114.02240 31013 ft 438 kts 20°
2026-04-18 12:09 30.84457 114.05281 31016 ft 437 kts 19°
2026-04-18 12:09 30.89958 114.08255 31015 ft 435 kts 19°
2026-04-18 12:10 30.95451 114.11212 31017 ft 435 kts 19°
2026-04-18 12:10 31.00937 114.14181 31018 ft 435 kts 19°
2026-04-18 12:11 31.06426 114.17163 31022 ft 434 kts 19°
2026-04-18 12:11 31.11906 114.20147 31028 ft 434 kts 19°
2026-04-18 12:12 31.17346 114.23109 31031 ft 434 kts 19°
2026-04-18 12:12 31.22818 114.26090 31025 ft 433 kts 19°
2026-04-18 12:13 31.28277 114.29065 31032 ft 433 kts 19°
2026-04-18 12:13 31.33732 114.32043 31031 ft 432 kts 19°
2026-04-18 12:13 31.36538 114.33164 31034 ft 421 kts
2026-04-18 12:14 31.39434 114.33467 31033 ft 416 kts 357°
2026-04-18 12:14 31.45231 114.33547 31030 ft 417 kts 355°
2026-04-18 12:15 31.51044 114.33590 31027 ft 418 kts 356°
2026-04-18 12:15 31.56848 114.33714 31029 ft 417 kts 357°
2026-04-18 12:16 31.62641 114.33900 31031 ft 415 kts 357°
2026-04-18 12:16 31.68425 114.34091 31035 ft 416 kts 357°
2026-04-18 12:17 31.74226 114.34270 31032 ft 416 kts 357°
2026-04-18 12:17 31.79975 114.34446 31038 ft 416 kts 357°
2026-04-18 12:18 31.85751 114.34630 31032 ft 415 kts 357°
2026-04-18 12:18 31.91532 114.34811 31025 ft 415 kts 357°
2026-04-18 12:19 31.97307 114.34988 31029 ft 415 kts 357°
2026-04-18 12:19 32.03085 114.35167 31025 ft 415 kts 357°
2026-04-18 12:20 32.08866 114.35345 31023 ft 416 kts 358°
2026-04-18 12:20 32.14652 114.35521 31028 ft 416 kts 358°
2026-04-18 12:21 32.20438 114.35696 31028 ft 416 kts 358°
2026-04-18 12:21 32.26224 114.35884 31025 ft 416 kts 359°
2026-04-18 12:22 32.31995 114.36356 31025 ft 415 kts
2026-04-18 12:22 32.37751 114.36947 31027 ft 415 kts
2026-04-18 12:23 32.43502 114.37509 31026 ft 415 kts
2026-04-18 12:23 32.49271 114.38038 31027 ft 416 kts
2026-04-18 12:24 32.55041 114.38556 31029 ft 416 kts